COSMOS 1275 DEB, 12728

Orbit data source: Space-Track

COSMOS 1275 DEB, 12728 is space debris in LEO originally from a launch on Thu, 04 Jun 1981 UTC launched from the Plesetsk Missile And Space Complex (PKMTR). Debris objects in space refer to the collection of defunct objects orbiting the Earth. Examples of debris include non-operational satellites, rocket bodies, and fragments generated from explosions, collisions, or faulty payload assembly.

Loading next visibility...
Identifier
12728, 1981-053BV
Orbit
LEO
Country
Flag of CISCIS
Related business
Manufacturer
Unknown
Mission
Spacecraft
Bus & Motor
Unknown
Mass
Unknown
Launch date (UTC)
1981-06-04 (45 years ago)
Launch vehicle
Unknown
Launch site
Plesetsk Missile And Space Complex (PKMTR)
Object type
Payload
Rocket body
Debris
Shape & HBR
Unknown shape, 0.2 m
Radar Cross Section
Medium (>0.1 m² and <1 m²)

Expand to show TLE details & history
Last TLE update: 23 hours ago

TLE from 23 hours ago
0 COSMOS 1275 DEB
1 12728U 81053BV  26255.28063471  .00000285  00000-0  26620-3 0  9992
2 12728  82.8102  14.0531 0053483 321.9640  63.4086 13.78136464250293
Epoch: 2026-09-12T06:44Z
TLE epoch observation values (Epoch: 2026-09-12T06:44:06.838Z)
Latitude
25.73503°
Longitude
-74.7994°
Altitude
956.193 km
Speed
7.385 km/s
True Right ascension
01h 10m 05s
True Declination
25° 36' 16"
Sunlit
Object was in full shadow at epoch
Visualization orbit readout
Latitude
Unknown
Longitude
Unknown
Altitude
Unknown
Speed
Unknown
Apparent Right ascension
Unknown
Apparent Declination
Unknown
Sunlit
N/A
Visualization observer readout
Local Sidereal Time
22:32:00
Azimuth
Unknown
Elevation
Unknown
Doppler factor
Unknown
Orbital elements
Apogee altitude
1,006.941 km
Perigee altitude
928.366 km
Semi-major axis
7,345.79 km
Eccentricity
0.00535
Inclination
82.8102°
RAAN
14.0531°
Arg. of periapsis
321.964°
True anomaly
63.95828°
Mean anomaly
63.4086°
Eccentric anomaly
63.68328°
Mean motion
3.44735 °/min
Orbital period
104.43 mins
BSTAR
0.0002662
Loading maneuver chart data...
Computing Atmospheric mass density...
Loading historical data...
Loading historical data...
Loading historical data...
Loading historical data...
Loading historical data...
Loading historical data...
Loading historical data...

Documentation

Showing up to 5 results
|